�������l�o���
Date,Time,MP-1(��Sv/h),MP-2(��Sv/h),MP-3(��Sv/h),MP-4(��Sv/h),MP-5(��Sv/h),MP-6(��Sv/h),MP-7(��Sv/h),����,����(m/s),���J
2021/04/01,00:00,0.171,0.153,0.250,0.236,0.236,0.134,0.083,�k�k��,4.5,��
2021/04/01,00:10,0.172,0.152,0.250,0.237,0.236,0.133,0.083,�k�k��,4.6,��
2021/04/01,00:20,0.171,0.153,0.250,0.236,0.234,0.133,0.083,�k�k��,5.4,��
2021/04/01,00:30,0.170,0.152,0.249,0.236,0.234,0.133,0.083,�k�k��,4.9,��
2021/04/01,00:40,0.171,0.152,0.250,0.236,0.236,0.132,0.082,�k�k��,5.5,��
2021/04/01,00:50,0.171,0.153,0.250,0.236,0.235,0.134,0.082,�k,7.0,��
2021/04/01,01:00,0.171,0.152,0.249,0.235,0.235,0.134,0.083,�k�k��,5.5,��
2021/04/01,01:10,0.171,0.151,0.250,0.236,0.236,0.133,0.083,�k�k��,5.6,��
2021/04/01,01:20,0.171,0.152,0.250,0.236,0.235,0.133,0.083,�k�k��,6.9,��
2021/04/01,01:30,0.171,0.153,0.250,0.237,0.236,0.135,0.083,�k�k��,6.0,��
2021/04/01,01:40,0.171,0.152,0.249,0.236,0.236,0.134,0.084,�k,2.9,��
2021/04/01,01:50,0.171,0.153,0.250,0.235,0.234,0.133,0.083,�k�k��,4.6,��
2021/04/01,02:00,0.170,0.151,0.249,0.235,0.235,0.133,0.083,�k,6.9,��
2021/04/01,02:10,0.171,0.152,0.250,0.236,0.235,0.134,0.083,�k,6.9,��
2021/04/01,02:20,0.170,0.152,0.249,0.236,0.234,0.133,0.083,�k,7.3,��
2021/04/01,02:30,0.171,0.153,0.249,0.238,0.235,0.134,0.083,�k,6.2,��
2021/04/01,02:40,0.171,0.153,0.250,0.236,0.236,0.134,0.083,�k,6.7,��
2021/04/01,02:50,0.170,0.152,0.249,0.236,0.235,0.133,0.083,�k,7.1,��
2021/04/01,03:00,0.172,0.152,0.250,0.236,0.236,0.133,0.083,�k,6.9,��
2021/04/01,03:10,0.171,0.153,0.251,0.238,0.236,0.133,0.082,�k,8.3,��
2021/04/01,03:20,0.171,0.152,0.251,0.236,0.234,0.133,0.083,�k,6.6,��
2021/04/01,03:30,0.171,0.152,0.249,0.237,0.236,0.134,0.083,�k,6.5,��
2021/04/01,03:40,0.171,0.152,0.250,0.236,0.236,0.133,0.083,�k,6.4,��
2021/04/01,03:50,0.171,0.153,0.249,0.237,0.236,0.133,0.083,�k,6.9,��
2021/04/01,04:00,0.172,0.152,0.251,0.236,0.237,0.133,0.083,�k,7.2,��
2021/04/01,04:10,0.172,0.153,0.250,0.235,0.236,0.133,0.083,�k,6.6,��
2021/04/01,04:20,0.171,0.152,0.249,0.236,0.236,0.134,0.082,�k�k��,7.2,��
2021/04/01,04:30,0.171,0.154,0.249,0.236,0.235,0.134,0.083,�k,7.3,��
2021/04/01,04:40,0.171,0.152,0.249,0.237,0.235,0.134,0.083,�k,6.6,��
2021/04/01,04:50,0.172,0.151,0.250,0.236,0.235,0.133,0.084,�k,6.5,��
2021/04/01,05:00,0.170,0.152,0.250,0.237,0.236,0.134,0.083,�k,6.3,��
2021/04/01,05:10,0.171,0.153,0.249,0.236,0.235,0.133,0.082,�k,5.9,��
2021/04/01,05:20,0.172,0.152,0.249,0.236,0.235,0.134,0.083,�k,6.1,��
2021/04/01,05:30,0.171,0.152,0.249,0.235,0.235,0.134,0.082,�k,6.3,��
2021/04/01,05:40,0.171,0.152,0.250,0.235,0.236,0.134,0.083,�k,5.6,��
2021/04/01,05:50,0.171,0.152,0.250,0.236,0.235,0.134,0.083,�k,5.0,��
2021/04/01,06:00,0.171,0.152,0.249,0.237,0.236,0.133,0.083,�k,5.0,��
2021/04/01,06:10,0.171,0.153,0.249,0.236,0.235,0.133,0.083,�k,5.0,��
2021/04/01,06:20,0.172,0.152,0.249,0.235,0.235,0.133,0.083,�k,4.4,��
2021/04/01,06:30,0.171,0.152,0.249,0.236,0.235,0.132,0.083,�k�k��,3.9,��
2021/04/01,06:40,0.170,0.153,0.249,0.235,0.235,0.133,0.083,�k�k��,3.8,��
2021/04/01,06:50,0.170,0.152,0.250,0.236,0.235,0.132,0.083,�k�k��,4.4,��
2021/04/01,07:00,0.172,0.153,0.249,0.234,0.235,0.133,0.082,�k�k��,4.6,��
2021/04/01,07:10,0.171,0.153,0.250,0.235,0.236,0.134,0.082,�k,3.2,��
2021/04/01,07:20,0.170,0.152,0.247,0.236,0.235,0.133,0.083,�k,3.7,��
2021/04/01,07:30,0.172,0.151,0.249,0.234,0.234,0.133,0.082,�k,2.8,��
2021/04/01,07:40,0.171,0.151,0.248,0.235,0.235,0.133,0.083,�k,2.9,��
2021/04/01,07:50,0.170,0.151,0.246,0.235,0.234,0.133,0.082,�k,2.5,��
2021/04/01,08:00,0.171,0.151,0.248,0.233,0.236,0.132,0.083,�k�k��,2.8,��
2021/04/01,08:10,0.171,0.152,0.247,0.236,0.236,0.133,0.083,�k��,3.9,��
2021/04/01,08:20,0.170,0.152,0.249,0.234,0.235,0.133,0.083,�k�k��,4.7,��
2021/04/01,08:30,0.171,0.152,0.247,0.236,0.236,0.133,0.082,�k��,4.4,��
2021/04/01,08:40,0.171,0.151,0.247,0.235,0.235,0.133,0.083,�k��,4.8,��
2021/04/01,08:50,0.171,0.152,0.248,0.236,0.235,0.132,0.083,�k��,4.0,��
2021/04/01,09:00,0.171,0.151,0.249,0.233,0.235,0.132,0.082,�k��,4.3,��
2021/04/01,09:10,0.171,0.152,0.248,0.237,0.234,0.132,0.083,�k��,3.4,��
2021/04/01,09:20,0.171,0.151,0.250,0.234,0.234,0.133,0.082,���k��,3.2,��
2021/04/01,09:30,0.171,0.152,0.248,0.234,0.235,0.133,0.083,�k��,3.4,��
2021/04/01,09:40,0.170,0.151,0.249,0.235,0.234,0.132,0.083,�k�k��,3.8,��
2021/04/01,09:50,0.171,0.152,0.248,0.236,0.236,0.132,0.083,�k��,3.7,��
2021/04/01,10:00,0.170,0.151,0.250,0.235,0.233,0.133,0.082,�k��,3.0,��
2021/04/01,10:10,0.170,0.151,0.248,0.234,0.235,0.133,0.082,���k��,3.2,��
2021/04/01,10:20,0.170,0.151,0.248,0.236,0.234,0.134,0.083,�k��,3.3,��
2021/04/01,10:30,0.170,0.153,0.248,0.233,0.237,0.133,0.083,�k��,3.6,��
2021/04/01,10:40,0.170,0.151,0.250,0.236,0.235,0.133,0.082,���k��,3.2,��
2021/04/01,10:50,0.171,0.151,0.249,0.235,0.234,0.134,0.082,���k��,2.9,��
2021/04/01,11:00,0.171,0.151,0.251,0.236,0.236,0.132,0.083,���k��,3.0,��
2021/04/01,11:10,0.170,0.152,0.247,0.236,0.233,0.133,0.083,���k��,3.1,��
2021/04/01,11:20,0.170,0.151,0.250,0.233,0.236,0.134,0.082,���k��,3.2,��
2021/04/01,11:30,0.169,0.153,0.247,0.236,0.233,0.133,0.082,�k��,2.8,��
2021/04/01,11:40,0.171,0.151,0.252,0.236,0.234,0.133,0.083,���k��,3.5,��
2021/04/01,11:50,0.170,0.153,0.250,0.236,0.236,0.134,0.082,���k��,2.5,��
2021/04/01,12:00,0.171,0.152,0.251,0.236,0.233,0.133,0.082,�k��,2.5,��
2021/04/01,12:10,0.169,0.152,0.248,0.235,0.236,0.133,0.082,�k��,3.1,��
2021/04/01,12:20,0.170,0.152,0.250,0.237,0.235,0.133,0.083,���k��,3.2,��
2021/04/01,12:30,0.170,0.151,0.250,0.236,0.234,0.133,0.083,���k��,3.4,��
2021/04/01,12:40,0.170,0.153,0.250,0.235,0.236,0.133,0.082,�k��,3.3,��
2021/04/01,12:50,0.171,0.151,0.250,0.235,0.235,0.133,0.082,���k��,3.9,��
2021/04/01,13:00,0.169,0.152,0.249,0.235,0.235,0.133,0.082,�k��,3.7,��
2021/04/01,13:10,0.172,0.152,0.249,0.236,0.236,0.134,0.083,�k��,3.1,��
2021/04/01,13:20,0.169,0.152,0.250,0.236,0.234,0.132,0.082,�k��,3.3,��
2021/04/01,13:30,0.171,0.151,0.249,0.235,0.237,0.134,0.082,�k��,3.1,��
2021/04/01,13:40,0.171,0.153,0.249,0.238,0.235,0.133,0.083,�k��,3.3,��
2021/04/01,13:50,0.171,0.152,0.252,0.234,0.234,0.132,0.083,���k��,2.5,��
2021/04/01,14:00,0.171,0.153,0.248,0.238,0.237,0.133,0.083,�k��,2.8,��
2021/04/01,14:10,0.169,0.151,0.251,0.236,0.234,0.132,0.083,���k��,2.2,��
2021/04/01,14:20,0.171,0.153,0.250,0.234,0.236,0.133,0.083,���k��,2.6,��
2021/04/01,14:30,0.170,0.152,0.250,0.237,0.234,0.133,0.082,�k��,3.1,��
2021/04/01,14:40,0.172,0.153,0.248,0.235,0.234,0.133,0.083,���k��,2.6,��
2021/04/01,14:50,0.170,0.152,0.252,0.236,0.236,0.134,0.082,�k��,2.2,��
2021/04/01,15:00,0.171,0.153,0.250,0.237,0.235,0.132,0.082,�k��,2.7,��
2021/04/01,15:10,0.171,0.153,0.252,0.235,0.234,0.133,0.082,���k��,1.9,��
2021/04/01,15:20,0.170,0.153,0.251,0.237,0.236,0.134,0.082,���k��,2.1,��
2021/04/01,15:30,0.171,0.153,0.250,0.237,0.234,0.133,0.083,�k�k��,1.6,��
2021/04/01,15:40,0.170,0.153,0.253,0.238,0.235,0.134,0.082,�k��,2.8,��
2021/04/01,15:50,0.171,0.152,0.251,0.237,0.236,0.133,0.083,�k�k��,2.3,��
2021/04/01,16:00,0.171,0.153,0.251,0.237,0.234,0.133,0.082,�k��,2.3,��
2021/04/01,16:10,0.171,0.153,0.251,0.239,0.237,0.133,0.083,�k��,1.7,��
2021/04/01,16:20,0.171,0.152,0.251,0.237,0.235,0.133,0.083,�k��,2.3,��
2021/04/01,16:30,0.171,0.154,0.252,0.239,0.235,0.134,0.082,-,CALM,��
2021/04/01,16:40,0.171,0.153,0.250,0.237,0.236,0.133,0.083,�k��,1.1,��
2021/04/01,16:50,0.170,0.152,0.250,0.236,0.234,0.133,0.082,�k��,1.1,��
2021/04/01,17:00,0.172,0.153,0.251,0.238,0.237,0.133,0.082,�k��,1.0,��
2021/04/01,17:10,0.170,0.153,0.250,0.237,0.235,0.133,0.083,�k�k��,1.8,��
2021/04/01,17:20,0.171,0.154,0.250,0.237,0.238,0.134,0.083,�k��,1.0,��
2021/04/01,17:30,0.171,0.152,0.251,0.237,0.235,0.134,0.083,-,CALM,��
2021/04/01,17:40,0.171,0.153,0.250,0.237,0.237,0.134,0.083,�k,0.8,��
2021/04/01,17:50,0.172,0.152,0.251,0.238,0.236,0.133,0.083,-,CALM,��
2021/04/01,18:00,0.171,0.152,0.251,0.238,0.238,0.134,0.083,-,CALM,��
2021/04/01,18:10,0.171,0.152,0.249,0.236,0.237,0.134,0.083,-,CALM,��
2021/04/01,18:20,0.170,0.153,0.250,0.237,0.236,0.133,0.083,��,0.8,��
2021/04/01,18:30,0.171,0.152,0.252,0.237,0.238,0.134,0.082,��,1.3,��
2021/04/01,18:40,0.171,0.152,0.251,0.237,0.236,0.134,0.082,���쐼,2.1,��
2021/04/01,18:50,0.171,0.152,0.251,0.239,0.236,0.135,0.082,��,2.2,��
2021/04/01,19:00,0.171,0.153,0.252,0.236,0.236,0.134,0.083,��,2.9,��
2021/04/01,19:10,0.171,0.153,0.249,0.237,0.236,0.133,0.083,���쐼,2.7,��
2021/04/01,19:20,0.171,0.152,0.249,0.237,0.236,0.134,0.083,���쐼,2.7,��
2021/04/01,19:30,0.172,0.152,0.251,0.238,0.235,0.134,0.083,���쐼,2.4,��
2021/04/01,19:40,0.172,0.152,0.252,0.237,0.235,0.134,0.083,�쐼,1.3,��
2021/04/01,19:50,0.172,0.152,0.251,0.238,0.237,0.135,0.083,�쐼,0.6,��
2021/04/01,20:00,0.173,0.153,0.251,0.238,0.236,0.134,0.083,-,CALM,��
2021/04/01,20:10,0.171,0.153,0.250,0.238,0.236,0.133,0.082,-,CALM,��
2021/04/01,20:20,0.172,0.153,0.252,0.237,0.238,0.133,0.083,-,CALM,��
2021/04/01,20:30,0.171,0.153,0.251,0.238,0.236,0.134,0.082,-,CALM,��
2021/04/01,20:40,0.171,0.152,0.251,0.237,0.235,0.134,0.083,-,CALM,��
2021/04/01,20:50,0.171,0.153,0.251,0.237,0.235,0.134,0.084,-,CALM,��
2021/04/01,21:00,0.171,0.152,0.251,0.237,0.235,0.134,0.083,-,CALM,��
2021/04/01,21:10,0.171,0.152,0.250,0.237,0.236,0.133,0.082,-,CALM,��
2021/04/01,21:20,0.170,0.152,0.251,0.239,0.236,0.133,0.083,-,CALM,��
2021/04/01,21:30,0.172,0.152,0.251,0.239,0.236,0.134,0.083,�k�k��,0.6,��
2021/04/01,21:40,0.171,0.152,0.250,0.238,0.237,0.133,0.083,�k��,0.9,��
2021/04/01,21:50,0.171,0.153,0.251,0.237,0.235,0.133,0.083,-,CALM,��
2021/04/01,22:00,0.172,0.154,0.252,0.239,0.235,0.134,0.083,�k,1.4,��
2021/04/01,22:10,0.171,0.154,0.251,0.237,0.235,0.134,0.083,�k,2.1,��
2021/04/01,22:20,0.171,0.153,0.250,0.238,0.236,0.134,0.082,�k,3.1,��
2021/04/01,22:30,0.171,0.153,0.251,0.238,0.236,0.134,0.083,�k,4.8,��
2021/04/01,22:40,0.172,0.152,0.250,0.238,0.237,0.135,0.085,�k�k��,5.6,��
2021/04/01,22:50,0.171,0.152,0.252,0.238,0.236,0.134,0.083,�k�k��,5.7,��
2021/04/01,23:00,0.170,0.153,0.251,0.238,0.236,0.133,0.083,�k�k��,4.4,��
2021/04/01,23:10,0.171,0.153,0.252,0.238,0.237,0.134,0.084,�k��,4.0,��
2021/04/01,23:20,0.172,0.153,0.252,0.237,0.237,0.134,0.084,�k��,4.8,��
2021/04/01,23:30,0.171,0.153,0.252,0.238,0.236,0.134,0.083,���k��,1.8,��
2021/04/01,23:40,0.171,0.153,0.253,0.237,0.236,0.134,0.084,�k��,3.2,��
2021/04/01,23:50,0.171,0.153,0.251,0.237,0.236,0.133,0.082,�k��,4.1,��
